• In United Kingdom
  • List of Countries
  • For 7 days
  • Water Temperature
  • Satellite Maps
  • Weather Map
  • Weather Widgets
  • user-avatar
    Login

    Hourly Weather Shirokopole

    Today, 21 April, Saturday

    Time Temperature Precipitation Wind Pressure Humidity
    00:00 +4°C° 0 mm 6 mps 747 mmHg 73%
    01:00 +3°C° 0 mm 6 mps 747 mmHg 73%
    02:00 +2°C° 0 mm 6 mps 748 mmHg 74%
    03:00 +1°C° 0 mm 5 mps 748 mmHg 74%
    04:00 +1°C° 0 mm 5 mps 748 mmHg 73%
    05:00 +1°C° 0 mm 5 mps 749 mmHg 72%
    06:00 0°C° 0 mm 5 mps 749 mmHg 72%
    07:00 +1°C° 0 mm 5 mps 749 mmHg 65%
    08:00 +2°C° 0 mm 5 mps 750 mmHg 59%
    09:00 +5°C° 0 mm 4 mps 750 mmHg 52%
    10:00 +6°C° 0 mm 4 mps 749 mmHg 47%
    11:00 +7°C° 0 mm 4 mps 749 mmHg 42%
    12:00 +9°C° 0 mm 3 mps 749 mmHg 36%
    13:00 +10°C° 0 mm 3 mps 749 mmHg 35%
    14:00 +10°C° 0 mm 3 mps 748 mmHg 34%
    15:00 +11°C° 0 mm 3 mps 748 mmHg 33%
    16:00 +11°C° 0 mm 3 mps 747 mmHg 37%
    17:00 +11°C° 0 mm 3 mps 747 mmHg 41%
    18:00 +11°C° 0 mm 3 mps 746 mmHg 45%
    19:00 +10°C° 0 mm 4 mps 746 mmHg 48%
    20:00 +9°C° 0 mm 5 mps 745 mmHg 52%
    21:00 +8°C° 0 mm 6 mps 745 mmHg 55%
    22:00 +8°C° 0 mm 7 mps 744 mmHg 58%
    23:00 +9°C° 0 mm 7 mps 743 mmHg 61%

    Tomorrow, 22 April, Sunday

    Time Temperature Precipitation Wind Pressure Humidity
    00:00 +9°C° 0 mm 8 mps 742 mmHg 64%
    01:00 +9°C° 0 mm 8 mps 741 mmHg 67%
    02:00 +9°C° 0 mm 8 mps 740 mmHg 69%
    03:00 +8°C° 0 mm 9 mps 739 mmHg 72%
    04:00 +8°C° 0.8 mm 9 mps 738 mmHg 75%
    05:00 +7°C° 0.8 mm 9 mps 738 mmHg 79%
    06:00 +7°C° 0.8 mm 9 mps 737 mmHg 82%
    07:00 +9°C° 1.2 mm 8 mps 737 mmHg 80%
    08:00 +9°C° 1.2 mm 8 mps 737 mmHg 78%
    09:00 +10°C° 1.2 mm 7 mps 737 mmHg 76%
    10:00 +11°C° 0 mm 7 mps 737 mmHg 67%
    11:00 +11°C° 0 mm 8 mps 738 mmHg 58%
    12:00 +12°C° 0 mm 8 mps 738 mmHg 49%
    13:00 +12°C° 0 mm 8 mps 738 mmHg 49%
    14:00 +11°C° 0 mm 8 mps 738 mmHg 49%
    15:00 +11°C° 0 mm 8 mps 739 mmHg 49%
    16:00 +10°C° 0 mm 7 mps 739 mmHg 51%
    17:00 +10°C° 0 mm 6 mps 740 mmHg 52%
    18:00 +9°C° 0 mm 6 mps 740 mmHg 54%
    19:00 +8°C° 0 mm 5 mps 741 mmHg 58%
    20:00 +7°C° 0 mm 4 mps 741 mmHg 63%
    21:00 +6°C° 0 mm 4 mps 742 mmHg 67%
    22:00 +5°C° 0 mm 3 mps 742 mmHg 70%
    23:00 +5°C° 0 mm 3 mps 742 mmHg 72%

    Day after tomorrow, 23 April, Monday

    Time Temperature Precipitation Wind Pressure Humidity
    00:00 +4°C° 0 mm 3 mps 743 mmHg 75%
    01:00 +3°C° 0 mm 3 mps 743 mmHg 77%
    02:00 +3°C° 0 mm 3 mps 743 mmHg 79%
    03:00 +2°C° 0 mm 3 mps 743 mmHg 81%
    04:00 +2°C° 0 mm 3 mps 744 mmHg 80%
    05:00 +2°C° 0 mm 3 mps 744 mmHg 79%
    06:00 +1°C° 0 mm 4 mps 744 mmHg 79%
    07:00 +3°C° 0 mm 4 mps 745 mmHg 71%
    08:00 +3°C° 0 mm 5 mps 745 mmHg 63%
    09:00 +3°C° 0 mm 6 mps 745 mmHg 56%
    10:00 +4°C° 0 mm 6 mps 746 mmHg 54%
    11:00 +4°C° 0 mm 6 mps 746 mmHg 51%
    12:00 +4°C° 0 mm 6 mps 746 mmHg 49%
    13:00 +4°C° 0 mm 6 mps 746 mmHg 48%
    14:00 +4°C° 0 mm 6 mps 747 mmHg 47%
    15:00 +5°C° 0 mm 6 mps 747 mmHg 46%
    16:00 +5°C° 0 mm 5 mps 747 mmHg 46%
    17:00 +5°C° 0 mm 5 mps 748 mmHg 47%
    18:00 +3°C° 0 mm 5 mps 748 mmHg 48%
    19:00 +3°C° 0 mm 4 mps 749 mmHg 52%
    20:00 +3°C° 0 mm 4 mps 749 mmHg 56%
    21:00 +2°C° 0 mm 3 mps 750 mmHg 59%
    22:00 +1°C° 0 mm 3 mps 750 mmHg 61%
    23:00 +1°C° 0 mm 3 mps 750 mmHg 63%

    24 April, Tuesday

    Time Temperature Precipitation Wind Pressure Humidity
    00:00 0°C° 0 mm 3 mps 750 mmHg 65%
    01:00 0°C° 0 mm 3 mps 751 mmHg 67%
    02:00 -1°C° 0 mm 3 mps 751 mmHg 68%
    03:00 -1°C° 0 mm 3 mps 751 mmHg 70%
    04:00 -2°C° 0 mm 4 mps 752 mmHg 68%
    05:00 -1°C° 0 mm 4 mps 752 mmHg 66%
    06:00 -1°C° 0 mm 4 mps 752 mmHg 64%
    07:00 0°C° 0 mm 5 mps 753 mmHg 58%
    08:00 +2°C° 0 mm 5 mps 753 mmHg 53%
    09:00 +3°C° 0 mm 6 mps 754 mmHg 47%
    10:00 +5°C° 0 mm 5 mps 754 mmHg 45%
    11:00 +6°C° 0 mm 5 mps 754 mmHg 43%
    12:00 +6°C° 0 mm 5 mps 754 mmHg 41%
    13:00 +7°C° 0 mm 5 mps 754 mmHg 40%
    14:00 +7°C° 0 mm 5 mps 754 mmHg 39%
    15:00 +8°C° 0 mm 5 mps 754 mmHg 38%
    16:00 +7°C° 0 mm 4 mps 754 mmHg 40%
    17:00 +7°C° 0 mm 4 mps 754 mmHg 42%
    18:00 +8°C° 0 mm 3 mps 754 mmHg 45%
    19:00 +7°C° 0 mm 2 mps 754 mmHg 48%
    20:00 +6°C° 0 mm 2 mps 754 mmHg 50%
    21:00 +6°C° 0 mm 1 mps 754 mmHg 53%
    22:00 +6°C° 0 mm 1 mps 754 mmHg 55%
    23:00 +5°C° 0 mm 1 mps 754 mmHg 56%

    25 April, Wednesday

    Time Temperature Precipitation Wind Pressure Humidity
    00:00 +5°C° 0 mm 1 mps 754 mmHg 58%
    01:00 +4°C° 0 mm 1 mps 754 mmHg 59%
    02:00 +3°C° 0 mm 2 mps 754 mmHg 60%
    03:00 +3°C° 0 mm 2 mps 754 mmHg 61%
    04:00 +3°C° 0 mm 2 mps 754 mmHg 61%
    05:00 +4°C° 0 mm 2 mps 754 mmHg 61%
    06:00 +4°C° 0 mm 2 mps 754 mmHg 61%
    07:00 +5°C° 0 mm 3 mps 754 mmHg 57%
    08:00 +7°C° 0 mm 3 mps 754 mmHg 52%
    09:00 +8°C° 0 mm 4 mps 754 mmHg 47%
    10:00 +10°C° 0 mm 4 mps 754 mmHg 45%
    11:00 +11°C° 0 mm 4 mps 754 mmHg 43%
    12:00 +11°C° 0 mm 4 mps 753 mmHg 41%
    13:00 +11°C° 0 mm 4 mps 753 mmHg 43%
    14:00 +11°C° 0 mm 4 mps 753 mmHg 45%
    15:00 +10°C° 0 mm 5 mps 753 mmHg 47%
    16:00 +11°C° 0 mm 4 mps 753 mmHg 52%
    17:00 +10°C° 0 mm 4 mps 753 mmHg 56%
    18:00 +8°C° 0 mm 4 mps 752 mmHg 61%
    19:00 +8°C° 0 mm 3 mps 753 mmHg 66%
    20:00 +7°C° 0 mm 3 mps 753 mmHg 72%
    21:00 +6°C° 0 mm 2 mps 753 mmHg 77%
    22:00 +6°C° 0 mm 2 mps 753 mmHg 80%
    23:00 +5°C° 0 mm 2 mps 753 mmHg 83%

    26 April, Thursday

    Time Temperature Precipitation Wind Pressure Humidity
    00:00 +5°C° 0 mm 2 mps 753 mmHg 86%
    01:00 +5°C° 0 mm 2 mps 753 mmHg 87%
    02:00 +4°C° 0 mm 2 mps 753 mmHg 89%
    03:00 +4°C° 0 mm 2 mps 752 mmHg 90%
    04:00 +4°C° 0 mm 3 mps 752 mmHg 89%
    05:00 +4°C° 0 mm 4 mps 752 mmHg 88%
    06:00 +3°C° 0 mm 5 mps 751 mmHg 88%
    07:00 +4°C° 0.4 mm 6 mps 751 mmHg 86%
    08:00 +5°C° 0.4 mm 6 mps 750 mmHg 85%
    09:00 +6°C° 0.4 mm 7 mps 750 mmHg 83%
    10:00 +10°C° 0.4 mm 7 mps 749 mmHg 78%
    11:00 +12°C° 0.4 mm 7 mps 749 mmHg 72%
    12:00 +16°C° 0.4 mm 7 mps 748 mmHg 67%
    13:00 +16°C° 0.5 mm 7 mps 747 mmHg 68%
    14:00 +17°C° 0.5 mm 7 mps 747 mmHg 69%
    15:00 +17°C° 0.5 mm 7 mps 746 mmHg 70%
    16:00 +17°C° 0.5 mm 8 mps 745 mmHg 70%
    17:00 +17°C° 0.5 mm 9 mps 744 mmHg 70%
    18:00 +17°C° 0.5 mm 10 mps 743 mmHg 70%
    19:00 +16°C° 1.1 mm 10 mps 743 mmHg 73%
    20:00 +16°C° 1.1 mm 10 mps 743 mmHg 77%
    21:00 +14°C° 1.1 mm 10 mps 743 mmHg 80%
    22:00 +12°C° 0.1 mm 9 mps 744 mmHg 81%
    23:00 +10°C° 0.1 mm 7 mps 745 mmHg 83%
    Show more